Location: Bednik
(45.3500°N, 16.3833°E)
Time: 15:55:04
(UTC+00:00)

NOSS 3-2 (C) - Pass Details

Date: 08 August 2020
Orbit: 793 x 1419 km, 63.4° (Epoch: 21 September)

Event Time Altitude Azimuth Distance (km) Brightness Sun altitude
Exits shadow 19:48:39 21° 113° (ESE) 1,885 4.4 -15.1°
Maximum altitude 19:48:59 21° 108° (ESE) 1,888 4.5 -15.1°
Drops below altitude 10° 19:53:21 10° 62° (ENE) 2,668 5.6 -15.7°
Sets 19:56:41 0° 48° (NE) 3,731 6.5 -16.1°
